Location: Bakov nad Jizerou
(50.4784°N, 14.9394°E)
Time: 16:50:29
(UTC+00:00)

Cosmos 2322 - Pass Details

Date: 28 October 2021
Orbit: 841 x 854 km, 71.0° (Epoch: 04 December)

Event Time Altitude Azimuth Distance (km) Brightness Sun altitude
Rises 17:51:25 0° 200° (SSW) 3,410 7.1 -21.0°
Reaches altitude 10° 17:53:52 10° 198° (SSW) 2,478 6.3 -21.4°
Maximum altitude 17:59:32 72° 115° (ESE) 898 3.6 -22.3°
Enters shadow 18:02:39 28° 37° (NE) 1,560 4.8 -22.7°
